Location: Newark
(45.1114°N, 4.8975°E)
Time: 13:16:03
(UTC+00:00)

OTV 5 (USA 277) - Visible Passes

Search period start: 18 August 2019 00:00
Search period end: 28 August 2019 00:00
Orbit: 305 x 329 km, 54.5° (Epoch: 11 August)

Date Brightness Start Highest point End Pass type
(mag) Time Alt. Az. Time Alt. Az. Time Alt. Az.
18 Aug ? 01:42:15 11° N 01:42:15 11° N 01:42:45 10° NNE visible
18 Aug ? 03:15:05 10° NNW 03:16:59 17° NNE 03:18:52 10° ENE visible
19 Aug ? 01:56:30 12° N 01:56:46 12° N 01:57:51 10° NNE visible
19 Aug ? 03:29:24 10° NW 03:31:45 28° NNE 03:34:07 10° E visible
20 Aug ? 02:11:01 14° N 02:11:40 15° NNE 02:13:16 10° NE visible
20 Aug ? 03:43:47 10° NW 03:46:25 62° NNE 03:49:03 10° ESE visible
21 Aug ? 02:25:53 20° N 02:26:30 21° NNE 02:28:38 10° ENE visible
21 Aug ? 03:58:24 10° WNW 04:00:57 46° SW 04:03:30 10° SE visible
22 Aug ? 02:41:20 39° NE 02:41:20 39° NE 02:43:45 10° ESE visible
22 Aug ? 04:13:27 10° W 04:15:21 18° SW 04:17:14 10° S visible
23 Aug ? 02:57:32 19° SE 02:57:32 19° SE 02:58:27 10° SE visible
23 Aug ? 19:16:15 10° SSE 19:17:08 11° SE 19:17:16 11° SE visible
24 Aug ? 19:29:08 10° SSW 19:31:28 27° SE 19:33:07 15° E visible
24 Aug ? 21:03:23 10° W 21:04:05 15° W 21:04:05 15° W visible
25 Aug ? 19:43:17 10° SW 19:45:56 79° SE 19:48:17 12° ENE visible
25 Aug ? 21:18:38 10° WNW 21:19:13 13° NW 21:19:13 13° NW visible
26 Aug ? 19:57:59 10° WSW 20:00:31 40° NNW 20:02:58 11° NE visible
27 Aug ? 20:13:05 10° WNW 20:15:15 22° NNW 20:17:19 10° NNE visible
